Weather History for Elmira, NY

Change the Weather History Date:

Saturday, November 17, 2012

  Actual Average Record
Temperature  
Mean Temperature 34 °F -  
Max Temperature 48 °F 45 °F 71 °F (1990)
Min Temperature 19 °F 28 °F 8 °F (1967)
Degree Days  
Heating Degree Days 32    
Moisture  
Dew Point 24 °F    
Average Humidity 85    
Maximum Humidity 96    
Minimum Humidity 50    
Precipitation  
Precipitation 0.00 in - - ()
Sea Level Pressure  
Sea Level Pressure 30.63 in    
Wind  
Wind Speed 1 mph (WSW)    
Max Wind Speed 5 mph    
Max Gust Speed -    
Visibility 6 miles    
Events Fog    
Averages and records for this station are not official NWS values.
T = Trace of Precipitation, MM = Missing Value Source: NWS Daily Summary

Daily Weather History Graph

Daily Weather History Graph

Search for Another Location

Airport:

Trip Planner

Search our weather history database for the weather conditions in past years. The results will help you decide how hot, cold, wet, or windy it might be!

Date:

Astronomy

Nov. 17, 2012 Rise Set
Actual Time 7:00 AM EST 4:43 PM EST
Civil Twilight 6:30 AM EST 5:14 PM EST
Nautical Twilight 5:56 AM EST 5:48 PM EST
Astronomical Twilight 5:23 AM EST 6:21 PM EST
Moon 10:44 AM EST (11/17) 8:51 PM EST (11/17)
Length of Visible Light 10h 43m
Length of Day
9h 43m
Waxing Crescent, 20% of the Moon is Illuminated
Nov 17
Waxing Crescent
Nov 20
First Quarter
Nov 28
Full
Dec 6
Last Quarter
Dec 13
New

Hourly Weather History & Observations

Time (EST) Temp. Windchill Dew Point Humidity Pressure Visibility Wind Dir Wind Speed Gust Speed Precip Events Conditions
12:53 AM 23.0 °F - 19.9 °F 88% 30.54 in 6.0 mi Calm Calm - N/A   Clear
1:53 AM 19.9 °F 14.9 °F 19.0 °F 96% 30.55 in 5.0 mi WSW 3.5 mph - N/A   Clear
2:53 AM 19.9 °F 14.9 °F 18.0 °F 92% 30.57 in 7.0 mi WSW 3.5 mph - N/A   Clear
3:53 AM 21.0 °F - 19.0 °F 92% 30.57 in 6.0 mi Calm Calm - N/A   Clear
4:53 AM 21.0 °F - 18.0 °F 88% 30.60 in 7.0 mi Calm Calm - N/A   Clear
5:53 AM 21.0 °F - 18.0 °F 88% 30.61 in 8.0 mi Calm Calm - N/A   Clear
6:53 AM 19.9 °F - 17.1 °F 89% 30.64 in 9.0 mi Calm Calm - N/A   Clear
7:27 AM 19.4 °F - 17.6 °F 93% 30.61 in 8.0 mi Calm Calm - N/A   Partly Cloudy
7:44 AM 21.2 °F - 19.4 °F 93% 30.62 in 7.0 mi Calm Calm - N/A   Mostly Cloudy
7:53 AM 23.0 °F - 19.9 °F 88% 30.67 in 8.0 mi Calm Calm - N/A   Scattered Clouds
8:20 AM 26.6 °F - 23.0 °F 86% 30.63 in 6.0 mi Calm Calm - N/A   Mostly Cloudy
8:30 AM 26.6 °F 21.2 °F 24.8 °F 93% 30.63 in 1.8 mi WSW 4.6 mph - N/A   Overcast
8:39 AM 26.6 °F 22.6 °F 24.8 °F 93% 30.63 in 0.2 mi WSW 3.5 mph - N/A Fog Light Freezing Fog
8:53 AM 27.0 °F 23.0 °F 26.1 °F 96% 30.68 in 0.2 mi SW 3.5 mph - N/A Fog Light Freezing Fog
9:53 AM 30.0 °F 26.5 °F 28.0 °F 92% 30.69 in 0.2 mi West 3.5 mph - N/A Fog Light Freezing Fog
10:53 AM 34.0 °F - 32.0 °F 92% 30.68 in 3.0 mi Calm Calm - N/A   Mostly Cloudy
11:02 AM 35.6 °F - 32.0 °F 87% 30.64 in 5.0 mi Calm Calm - N/A   Scattered Clouds
11:53 AM 43.0 °F - 33.1 °F 68% 30.65 in 10.0 mi Calm Calm - N/A   Clear
12:53 PM 46.9 °F - 33.1 °F 59% 30.63 in 10.0 mi Calm Calm - N/A   Clear
1:53 PM 48.9 °F - 30.9 °F 50% 30.62 in 10.0 mi Calm Calm - N/A   Clear
2:53 PM 48.0 °F - 30.0 °F 50% 30.62 in 10.0 mi Calm Calm - N/A   Clear
3:53 PM 48.0 °F - 30.0 °F 50% 30.61 in 10.0 mi Calm Calm - N/A   Clear
4:53 PM 36.0 °F - 28.0 °F 73% 30.62 in 10.0 mi Calm Calm - N/A   Clear
5:53 PM 32.0 °F - 28.0 °F 85% 30.64 in 10.0 mi Calm Calm - N/A   Clear
6:53 PM 32.0 °F - 27.0 °F 82% 30.65 in 10.0 mi Calm Calm - N/A   Clear
7:53 PM 28.9 °F - 26.1 °F 89% 30.66 in 10.0 mi Calm Calm - N/A   Clear
8:53 PM 25.0 °F - 24.1 °F 96% 30.67 in 7.0 mi Calm Calm - N/A   Clear
9:53 PM 27.0 °F - 24.1 °F 89% 30.68 in 9.0 mi Calm Calm - N/A   Clear
10:28 PM 24.8 °F - 23.0 °F 93% 30.64 in 1.2 mi Calm Calm - N/A   Clear
10:36 PM 24.8 °F - 23.0 °F 93% 30.64 in 0.5 mi Calm Calm - N/A Fog Light Freezing Fog
10:53 PM 25.0 °F - 21.9 °F 88% 30.67 in 1.8 mi Calm Calm - N/A   Clear
11:05 PM 24.8 °F - 21.2 °F 86% 30.63 in 3.0 mi Calm Calm - N/A   Clear
11:53 PM 23.0 °F - 21.9 °F 96% 30.66 in 6.0 mi Calm Calm - N/A   Clear